Time,TemperatureF,DewpointF,PressureIn,WindDirection,WindDirectionDegrees,WindSpeedMPH,WindSpeedGustMPH,Humidity,HourlyPrecipIn,Conditions,Clouds,dailyrainin,SoftwareType,DateUTC
2013-03-26 00:00:00,32.7,21.9,29.98,ESE,102,5.0,5.0,64,0.00,,,0.00,WeatherCatV1.11B39,2013-03-26 04:00:00,
2013-03-26 00:05:00,32.7,21.9,29.98,South,186,7.0,9.0,64,0.00,,,0.00,WeatherCatV1.11B39,2013-03-26 04:05:00,
2013-03-26 00:10:00,32.7,21.9,29.98,WNW,296,9.0,11.0,64,0.00,,,0.00,WeatherCatV1.11B39,2013-03-26 04:10:00,
2013-03-26 00:11:00,32.7,21.9,29.98,SSW,207,5.0,12.0,64,0.00,,,0.00,WeatherCatV1.11B39,2013-03-26 04:11:00,
2013-03-26 00:16:00,32.7,22.3,29.98,SW,236,6.0,8.0,65,0.00,,,0.00,WeatherCatV1.11B39,2013-03-26 04:16:00,
2013-03-26 00:21:00,32.7,21.9,29.98,WNW,298,8.0,13.0,64,0.00,,,0.00,WeatherCatV1.11B39,2013-03-26 04:21:00,
2013-03-26 00:26:00,32.7,22.3,29.98,WNW,294,12.0,12.0,65,0.00,,,0.00,WeatherCatV1.11B39,2013-03-26 04:26:00,
2013-03-26 00:31:00,32.7,22.3,29.98,SW,221,2.0,8.0,65,0.00,,,0.00,WeatherCatV1.11B39,2013-03-26 04:31:00,
2013-03-26 00:36:00,32.7,22.3,29.98,WNW,289,1.0,7.0,65,0.00,,,0.00,WeatherCatV1.11B39,2013-03-26 04:36:00,
2013-03-26 00:41:00,32.6,22.2,29.98,South,178,10.0,10.0,65,0.00,,,0.00,WeatherCatV1.11B39,2013-03-26 04:41:00,
2013-03-26 00:46:00,32.7,22.3,29.98,South,179,6.0,11.0,65,0.00,,,0.00,WeatherCatV1.11B39,2013-03-26 04:46:00,
2013-03-26 00:51:00,32.8,22.3,29.98,SSW,211,9.0,12.0,65,0.00,,,0.00,WeatherCatV1.11B39,2013-03-26 04:51:00,
2013-03-26 00:56:00,32.8,22.7,29.98,WNW,288,11.0,11.0,66,0.00,,,0.00,WeatherCatV1.11B39,2013-03-26 04:56:00,
2013-03-26 01:01:00,32.8,22.7,29.98,South,171,2.0,6.0,66,0.00,,,0.00,WeatherCatV1.11B39,2013-03-26 05:01:00,
2013-03-26 01:06:00,32.8,22.7,29.98,WNW,289,2.0,10.0,66,0.00,,,0.00,WeatherCatV1.11B39,2013-03-26 05:06:00,
2013-03-26 01:11:00,32.8,22.7,29.98,West,273,8.0,14.0,66,0.00,,,0.00,WeatherCatV1.11B39,2013-03-26 05:11:00,
2013-03-26 01:16:00,32.8,22.7,29.98,West,269,5.0,5.0,66,0.00,,,0.00,WeatherCatV1.11B39,2013-03-26 05:16:00,
2013-03-26 01:21:00,32.8,22.7,29.98,SW,228,2.0,9.0,66,0.00,,,0.00,WeatherCatV1.11B39,2013-03-26 05:21:00,
2013-03-26 01:26:00,32.8,23.1,29.98,West,267,6.0,13.0,67,0.00,,,0.00,WeatherCatV1.11B39,2013-03-26 05:26:00,
2013-03-26 01:31:00,32.8,22.7,29.98,West,273,12.0,12.0,66,0.00,,,0.00,WeatherCatV1.11B39,2013-03-26 05:31:00,
2013-03-26 01:36:00,32.8,23.1,29.98,West,271,8.0,8.0,67,0.00,,,0.00,WeatherCatV1.11B39,2013-03-26 05:36:00,
2013-03-26 01:41:00,32.8,23.1,29.98,WSW,257,11.0,17.0,67,0.00,,,0.00,WeatherCatV1.11B39,2013-03-26 05:41:00,
2013-03-26 01:46:00,32.8,22.7,29.99,West,266,10.0,13.0,66,0.00,,,0.00,WeatherCatV1.11B39,2013-03-26 05:46:00,
2013-03-26 01:51:00,32.8,23.1,29.99,West,277,13.0,13.0,67,0.00,,,0.00,WeatherCatV1.11B39,2013-03-26 05:51:00,
2013-03-26 01:56:00,32.8,23.1,29.98,SW,222,7.0,15.0,67,0.00,,,0.00,WeatherCatV1.11B39,2013-03-26 05:56:00,
2013-03-26 02:01:00,32.8,23.1,29.98,WSW,258,7.0,18.0,67,0.00,,,0.00,WeatherCatV1.11B39,2013-03-26 06:01:00,
2013-03-26 02:06:00,32.8,23.4,29.98,NW,306,4.0,7.0,68,0.00,,,0.00,WeatherCatV1.11B39,2013-03-26 06:06:00,
2013-03-26 02:11:00,32.8,23.8,29.98,WSW,243,6.0,11.0,69,0.00,,,0.00,WeatherCatV1.11B39,2013-03-26 06:11:00,
2013-03-26 02:16:00,32.7,23.7,29.98,SW,227,6.0,18.0,69,0.00,,,0.00,WeatherCatV1.11B39,2013-03-26 06:16:00,
2013-03-26 02:21:00,32.7,23.3,29.98,SW,234,11.0,20.0,68,0.00,,,0.00,WeatherCatV1.11B39,2013-03-26 06:21:00,
2013-03-26 02:26:00,32.7,23.7,29.99,West,269,12.0,12.0,69,0.00,,,0.00,WeatherCatV1.11B39,2013-03-26 06:26:00,
2013-03-26 02:31:00,32.7,23.7,29.99,SSW,205,7.0,11.0,69,0.00,,,0.00,WeatherCatV1.11B39,2013-03-26 06:31:00,
2013-03-26 02:36:00,32.6,23.6,29.99,WNW,282,8.0,11.0,69,0.00,,,0.00,WeatherCatV1.11B39,2013-03-26 06:36:00,
2013-03-26 02:41:00,32.6,23.6,29.99,SSW,205,13.0,15.0,69,0.00,,,0.00,WeatherCatV1.11B39,2013-03-26 06:41:00,
2013-03-26 02:46:00,32.6,23.2,29.98,West,266,6.0,14.0,68,0.00,,,0.00,WeatherCatV1.11B39,2013-03-26 06:46:00,
2013-03-26 02:51:00,32.5,23.1,29.98,SSW,195,3.0,12.0,68,0.00,,,0.00,WeatherCatV1.11B39,2013-03-26 06:51:00,
2013-03-26 02:56:00,32.5,23.1,29.99,WSW,248,7.0,8.0,68,0.00,,,0.00,WeatherCatV1.11B39,2013-03-26 06:56:00,
2013-03-26 03:01:00,32.5,23.1,29.98,SW,227,4.0,13.0,68,0.00,,,0.00,WeatherCatV1.11B39,2013-03-26 07:01:00,
2013-03-26 03:06:00,32.5,23.1,29.99,West,269,3.0,7.0,68,0.00,,,0.00,WeatherCatV1.11B39,2013-03-26 07:06:00,
2013-03-26 03:11:00,32.5,23.5,29.98,West,273,6.0,16.0,69,0.00,,,0.00,WeatherCatV1.11B39,2013-03-26 07:11:00,
2013-03-26 03:16:00,32.5,23.8,29.98,West,273,4.0,11.0,70,0.00,,,0.00,WeatherCatV1.11B39,2013-03-26 07:16:00,
2013-03-26 03:21:00,32.4,23.7,29.98,SW,236,3.0,8.0,70,0.00,,,0.00,WeatherCatV1.11B39,2013-03-26 07:21:00,
2013-03-26 03:26:00,32.3,23.6,29.98,SW,221,5.0,10.0,70,0.00,,,0.00,WeatherCatV1.11B39,2013-03-26 07:26:00,
2013-03-26 03:31:00,32.2,23.5,29.98,SW,228,4.0,5.0,70,0.00,,,0.00,WeatherCatV1.11B39,2013-03-26 07:31:00,
2013-03-26 03:36:00,32.2,23.5,29.98,WSW,254,11.0,11.0,70,0.00,,,0.00,WeatherCatV1.11B39,2013-03-26 07:36:00,
2013-03-26 03:41:00,32.2,23.9,29.97,WNW,294,8.0,13.0,71,0.00,,,0.00,WeatherCatV1.11B39,2013-03-26 07:41:00,
2013-03-26 03:46:00,32.2,23.9,29.98,West,259,3.0,10.0,71,0.00,,,0.00,WeatherCatV1.11B39,2013-03-26 07:46:00,
2013-03-26 03:51:00,32.2,24.2,29.97,SSW,206,5.0,9.0,72,0.00,,,0.00,WeatherCatV1.11B39,2013-03-26 07:51:00,
2013-03-26 03:56:00,32.1,24.1,29.97,SSW,211,10.0,11.0,72,0.00,,,0.00,WeatherCatV1.11B39,2013-03-26 07:56:00,
2013-03-26 04:01:00,32.1,24.4,29.97,West,269,10.0,11.0,73,0.00,,,0.00,WeatherCatV1.11B39,2013-03-26 08:01:00,
2013-03-26 04:06:00,32.1,24.4,29.97,WSW,249,6.0,6.0,73,0.00,,,0.00,WeatherCatV1.11B39,2013-03-26 08:06:00,
2013-03-26 04:11:00,32.0,24.3,29.96,West,271,2.0,6.0,73,0.00,,,0.00,WeatherCatV1.11B39,2013-03-26 08:11:00,
2013-03-26 04:16:00,31.9,24.6,29.96,West,263,7.0,7.0,74,0.00,,,0.00,WeatherCatV1.11B39,2013-03-26 08:16:00,
2013-03-26 04:21:00,31.8,24.5,29.96,SW,236,4.0,6.0,74,0.00,,,0.00,WeatherCatV1.11B39,2013-03-26 08:21:00,
2013-03-26 04:26:00,31.7,24.4,29.95,SSW,211,4.0,11.0,74,0.00,,,0.00,WeatherCatV1.11B39,2013-03-26 08:26:00,
2013-03-26 04:31:00,31.7,24.7,29.96,WSW,244,5.0,9.0,75,0.00,,,0.00,WeatherCatV1.11B39,2013-03-26 08:31:00,
2013-03-26 04:36:00,31.7,24.7,29.95,WSW,254,4.0,8.0,75,0.00,,,0.00,WeatherCatV1.11B39,2013-03-26 08:36:00,
2013-03-26 04:41:00,31.7,24.7,29.95,West,277,6.0,13.0,75,0.00,,,0.00,WeatherCatV1.11B39,2013-03-26 08:41:00,
2013-03-26 04:46:00,31.7,24.7,29.95,WSW,248,8.0,12.0,75,0.00,,,0.00,WeatherCatV1.11B39,2013-03-26 08:46:00,
2013-03-26 04:51:00,31.8,24.8,29.95,SW,234,4.0,12.0,75,0.00,,,0.00,WeatherCatV1.11B39,2013-03-26 08:51:00,
2013-03-26 04:56:00,31.8,24.8,29.95,WSW,258,8.0,14.0,75,0.00,,,0.00,WeatherCatV1.11B39,2013-03-26 08:56:00,
2013-03-26 05:00:00,31.8,24.8,29.94,SW,216,7.0,7.0,75,0.00,,,0.00,WeatherCatV1.11B39,2013-03-26 09:00:00,
2013-03-26 05:05:00,31.8,24.8,29.95,WSW,252,4.0,10.0,75,0.00,,,0.00,WeatherCatV1.11B39,2013-03-26 09:05:00,
2013-03-26 05:10:00,31.8,24.8,29.95,WNW,286,5.0,12.0,75,0.00,,,0.00,WeatherCatV1.11B39,2013-03-26 09:10:00,
2013-03-26 05:15:00,31.8,24.5,29.95,WNW,296,16.0,19.0,74,0.00,,,0.00,WeatherCatV1.11B39,2013-03-26 09:15:00,
2013-03-26 05:20:00,31.8,24.1,29.95,West,275,19.0,21.0,73,0.00,,,0.00,WeatherCatV1.11B39,2013-03-26 09:20:00,
2013-03-26 05:25:00,31.9,24.2,29.94,WNW,300,7.0,16.0,73,0.00,,,0.00,WeatherCatV1.11B39,2013-03-26 09:25:00,
2013-03-26 05:30:00,31.8,23.8,29.94,WSW,246,10.0,13.0,72,0.00,,,0.00,WeatherCatV1.11B39,2013-03-26 09:30:00,
2013-03-26 05:35:00,31.9,23.9,29.94,SW,236,7.0,22.0,72,0.00,,,0.00,WeatherCatV1.11B39,2013-03-26 09:35:00,
2013-03-26 05:40:00,31.8,23.8,29.94,West,275,14.0,14.0,72,0.00,,,0.00,WeatherCatV1.11B39,2013-03-26 09:40:00,
2013-03-26 05:45:00,31.8,23.8,29.94,West,269,8.0,10.0,72,0.00,,,0.00,WeatherCatV1.11B39,2013-03-26 09:45:00,
2013-03-26 05:50:00,31.8,23.8,29.94,WSW,248,6.0,15.0,72,0.00,,,0.00,WeatherCatV1.11B39,2013-03-26 09:50:00,
2013-03-26 05:55:00,31.7,23.7,29.95,SW,215,9.0,11.0,72,0.00,,,0.00,WeatherCatV1.11B39,2013-03-26 09:55:00,
2013-03-26 06:00:00,31.7,23.7,29.95,West,273,7.0,20.0,72,0.00,,,0.00,WeatherCatV1.11B39,2013-03-26 10:00:00,
2013-03-26 06:05:00,31.7,23.7,29.95,West,260,12.0,15.0,72,0.00,,,0.00,WeatherCatV1.11B39,2013-03-26 10:05:00,
2013-03-26 06:10:00,31.8,23.5,29.95,WSW,248,13.0,20.0,71,0.00,,,0.00,WeatherCatV1.11B39,2013-03-26 10:10:00,
2013-03-26 06:15:00,31.8,23.5,29.95,SSW,211,11.0,16.0,71,0.00,,,0.00,WeatherCatV1.11B39,2013-03-26 10:15:00,
2013-03-26 06:20:00,31.8,23.5,29.96,WSW,247,7.0,21.0,71,0.00,,,0.00,WeatherCatV1.11B39,2013-03-26 10:20:00,
2013-03-26 06:25:00,31.8,23.5,29.96,SW,230,6.0,14.0,71,0.00,,,0.00,WeatherCatV1.11B39,2013-03-26 10:25:00,
2013-03-26 06:30:00,31.8,23.8,29.96,SW,230,4.0,11.0,72,0.00,,,0.00,WeatherCatV1.11B39,2013-03-26 10:30:00,
2013-03-26 06:35:00,31.9,23.6,29.97,WSW,237,11.0,18.0,71,0.00,,,0.00,WeatherCatV1.11B39,2013-03-26 10:35:00,
2013-03-26 06:40:00,32.0,23.7,29.97,WSW,249,5.0,7.0,71,0.00,,,0.00,WeatherCatV1.11B39,2013-03-26 10:40:00,
2013-03-26 06:45:00,32.0,24.0,29.97,SW,230,4.0,6.0,72,0.00,,,0.00,WeatherCatV1.11B39,2013-03-26 10:45:00,
2013-03-26 06:50:00,32.1,23.8,29.97,SW,228,6.0,14.0,71,0.00,,,0.00,WeatherCatV1.11B39,2013-03-26 10:50:00,
2013-03-26 06:55:00,32.1,23.8,29.97,West,277,4.0,15.0,71,0.00,,,0.00,WeatherCatV1.11B39,2013-03-26 10:55:00,
2013-03-26 07:00:00,32.2,23.9,29.97,WSW,240,7.0,12.0,71,0.00,,,0.00,WeatherCatV1.11B39,2013-03-26 11:00:00,
2013-03-26 07:05:00,32.2,23.9,29.98,West,276,9.0,13.0,71,0.00,,,0.00,WeatherCatV1.11B39,2013-03-26 11:05:00,
2013-03-26 07:10:00,32.3,24.0,29.98,WNW,286,6.0,11.0,71,0.00,,,0.00,WeatherCatV1.11B39,2013-03-26 11:10:00,
2013-03-26 07:15:00,32.3,24.0,29.97,WSW,247,7.0,8.0,71,0.00,,,0.00,WeatherCatV1.11B39,2013-03-26 11:15:00,
2013-03-26 07:20:00,32.3,24.0,29.98,WSW,258,13.0,20.0,71,0.00,,,0.00,WeatherCatV1.11B39,2013-03-26 11:20:00,
2013-03-26 07:25:00,32.4,24.1,29.98,West,259,12.0,14.0,71,0.00,,,0.00,WeatherCatV1.11B39,2013-03-26 11:25:00,
2013-03-26 07:30:00,32.4,24.1,29.98,SW,232,11.0,14.0,71,0.00,,,0.00,WeatherCatV1.11B39,2013-03-26 11:30:00,
2013-03-26 07:35:00,32.5,24.2,29.98,WSW,255,15.0,15.0,71,0.00,,,0.00,WeatherCatV1.11B39,2013-03-26 11:35:00,
2013-03-26 07:40:00,32.5,24.2,29.98,SSW,209,4.0,14.0,71,0.00,,,0.00,WeatherCatV1.11B39,2013-03-26 11:40:00,
2013-03-26 07:45:00,32.5,24.2,29.99,SW,229,7.0,11.0,71,0.00,,,0.00,WeatherCatV1.11B39,2013-03-26 11:45:00,
2013-03-26 07:50:00,32.5,24.2,29.99,West,259,5.0,11.0,71,0.00,,,0.00,WeatherCatV1.11B39,2013-03-26 11:50:00,
2013-03-26 07:55:00,32.5,24.2,29.99,WSW,247,14.0,16.0,71,0.00,,,0.00,WeatherCatV1.11B39,2013-03-26 11:55:00,
2013-03-26 08:00:00,32.5,24.2,29.99,West,266,6.0,11.0,71,0.00,,,0.00,WeatherCatV1.11B39,2013-03-26 12:00:00,
2013-03-26 08:05:00,32.5,24.2,29.99,WNW,290,7.0,12.0,71,0.00,,,0.00,WeatherCatV1.11B39,2013-03-26 12:05:00,
2013-03-26 08:10:00,32.5,24.2,30.00,SW,219,6.0,13.0,71,0.00,,,0.00,WeatherCatV1.11B39,2013-03-26 12:10:00,
2013-03-26 08:15:00,32.6,24.3,30.00,SW,222,3.0,8.0,71,0.00,,,0.00,WeatherCatV1.11B39,2013-03-26 12:15:00,
2013-03-26 08:20:00,32.6,24.3,30.00,WSW,244,8.0,14.0,71,0.00,,,0.00,WeatherCatV1.11B39,2013-03-26 12:20:00,
2013-03-26 08:25:00,32.6,24.3,30.00,West,259,6.0,12.0,71,0.00,,,0.00,WeatherCatV1.11B39,2013-03-26 12:25:00,
2013-03-26 08:30:00,32.7,24.4,30.00,WSW,255,6.0,14.0,71,0.00,,,0.00,WeatherCatV1.11B39,2013-03-26 12:30:00,
2013-03-26 08:35:00,32.6,24.6,30.01,SW,229,5.0,11.0,72,0.00,,,0.00,WeatherCatV1.11B39,2013-03-26 12:35:00,
2013-03-26 08:40:00,32.6,24.9,30.01,West,267,8.0,8.0,73,0.00,,,0.00,WeatherCatV1.11B39,2013-03-26 12:40:00,
2013-03-26 08:45:00,32.4,25.1,30.01,West,263,8.0,16.0,74,0.00,,,0.00,WeatherCatV1.11B39,2013-03-26 12:45:00,
2013-03-26 08:50:00,32.4,25.4,30.01,SW,223,13.0,13.0,75,0.00,,,0.00,WeatherCatV1.11B39,2013-03-26 12:50:00,
2013-03-26 08:55:00,32.4,25.4,30.01,West,267,7.0,8.0,75,0.00,,,0.00,WeatherCatV1.11B39,2013-03-26 12:55:00,
2013-03-26 09:00:00,32.5,25.5,30.01,WSW,244,6.0,10.0,75,0.00,,,0.00,WeatherCatV1.11B39,2013-03-26 13:00:00,
2013-03-26 09:05:00,32.5,25.5,30.02,SSW,205,5.0,10.0,75,0.00,,,0.00,WeatherCatV1.11B39,2013-03-26 13:05:00,
2013-03-26 09:10:00,32.5,25.8,30.02,SW,236,4.0,11.0,76,0.00,,,0.00,WeatherCatV1.11B39,2013-03-26 13:10:00,
2013-03-26 09:15:00,32.6,25.6,30.03,WSW,258,4.0,13.0,75,0.00,,,0.00,WeatherCatV1.11B39,2013-03-26 13:15:00,
2013-03-26 09:20:00,32.6,25.6,30.03,SW,215,8.0,10.0,75,0.00,,,0.00,WeatherCatV1.11B39,2013-03-26 13:20:00,
2013-03-26 09:25:00,32.7,26.0,30.03,West,272,1.0,5.0,76,0.00,,,0.00,WeatherCatV1.11B39,2013-03-26 13:25:00,
2013-03-26 09:30:00,32.9,25.5,30.03,SW,215,3.0,14.0,74,0.00,,,0.00,WeatherCatV1.11B39,2013-03-26 13:30:00,
2013-03-26 09:35:00,33.0,26.0,30.04,SW,220,8.0,8.0,75,0.00,,,0.00,WeatherCatV1.11B39,2013-03-26 13:35:00,
2013-03-26 09:40:00,33.0,25.3,30.04,WNW,294,11.0,17.0,73,0.00,,,0.00,WeatherCatV1.11B39,2013-03-26 13:40:00,
2013-03-26 09:45:00,33.1,25.4,30.04,SE,130,1.0,7.0,73,0.00,,,0.00,WeatherCatV1.11B39,2013-03-26 13:45:00,
2013-03-26 09:50:00,33.2,25.5,30.04,SSW,208,2.0,8.0,73,0.00,,,0.00,WeatherCatV1.11B39,2013-03-26 13:50:00,
2013-03-26 09:55:00,33.4,25.4,30.04,WSW,257,12.0,15.0,72,0.00,,,0.00,WeatherCatV1.11B39,2013-03-26 13:55:00,
2013-03-26 10:00:00,33.4,25.0,30.05,West,264,14.0,20.0,71,0.00,,,0.00,WeatherCatV1.11B39,2013-03-26 14:00:00,
2013-03-26 10:04:00,33.5,25.1,30.04,WSW,252,10.0,14.0,71,0.00,,,0.00,WeatherCatV1.11B39,2013-03-26 14:04:00,
2013-03-26 10:09:00,33.5,25.1,30.05,West,273,11.0,11.0,71,0.00,,,0.00,WeatherCatV1.11B39,2013-03-26 14:09:00,
2013-03-26 10:14:00,33.6,25.2,30.05,West,261,4.0,12.0,71,0.00,,,0.00,WeatherCatV1.11B39,2013-03-26 14:14:00,
2013-03-26 10:19:00,33.7,25.6,30.05,West,269,3.0,7.0,72,0.00,,,0.00,WeatherCatV1.11B39,2013-03-26 14:19:00,
2013-03-26 10:24:00,33.7,25.3,30.05,West,262,7.0,20.0,71,0.00,,,0.00,WeatherCatV1.11B39,2013-03-26 14:24:00,
2013-03-26 10:29:00,33.6,25.2,30.06,WSW,246,10.0,19.0,71,0.00,,,0.00,WeatherCatV1.11B39,2013-03-26 14:29:00,
2013-03-26 10:34:00,33.7,25.0,30.06,WSW,241,7.0,22.0,70,0.00,,,0.00,WeatherCatV1.11B39,2013-03-26 14:34:00,
2013-03-26 10:39:00,33.7,25.0,30.06,WNW,299,4.0,11.0,70,0.00,,,0.00,WeatherCatV1.11B39,2013-03-26 14:39:00,
2013-03-26 10:44:00,33.8,25.1,30.06,West,275,13.0,19.0,70,0.00,,,0.00,WeatherCatV1.11B39,2013-03-26 14:44:00,
2013-03-26 10:49:00,33.8,25.1,30.07,WNW,282,0.0,6.0,70,0.00,,,0.00,WeatherCatV1.11B39,2013-03-26 14:49:00,
2013-03-26 10:54:00,34.1,25.4,30.07,West,272,7.0,11.0,70,0.00,,,0.00,WeatherCatV1.11B39,2013-03-26 14:54:00,
2013-03-26 10:59:00,34.1,24.7,30.07,WNW,289,11.0,15.0,68,0.00,,,0.00,WeatherCatV1.11B39,2013-03-26 14:59:00,
2013-03-26 11:04:00,34.3,25.2,30.07,West,273,8.0,13.0,69,0.00,,,0.00,WeatherCatV1.11B39,2013-03-26 15:04:00,
2013-03-26 11:09:00,34.3,24.9,30.07,WSW,242,5.0,8.0,68,0.00,,,0.00,WeatherCatV1.11B39,2013-03-26 15:09:00,
2013-03-26 11:14:00,34.7,25.6,30.07,West,259,15.0,15.0,69,0.00,,,0.00,WeatherCatV1.11B39,2013-03-26 15:14:00,
2013-03-26 11:19:00,35.2,26.1,30.07,WNW,296,16.0,16.0,69,0.00,,,0.00,WeatherCatV1.11B39,2013-03-26 15:19:00,
2013-03-26 11:24:00,35.6,25.0,30.07,SSW,201,10.0,20.0,65,0.00,,,0.00,WeatherCatV1.11B39,2013-03-26 15:24:00,
2013-03-26 11:29:00,35.9,25.7,30.08,SW,217,8.0,8.0,66,0.00,,,0.00,WeatherCatV1.11B39,2013-03-26 15:29:00,
2013-03-26 11:34:00,36.3,24.9,30.08,WSW,256,13.0,21.0,63,0.00,,,0.00,WeatherCatV1.11B39,2013-03-26 15:34:00,
2013-03-26 11:39:00,36.1,25.5,30.08,WNW,294,18.0,23.0,65,0.00,,,0.00,WeatherCatV1.11B39,2013-03-26 15:39:00,
2013-03-26 11:44:00,35.9,24.5,30.08,SSW,206,5.0,11.0,63,0.00,,,0.00,WeatherCatV1.11B39,2013-03-26 15:44:00,
2013-03-26 11:49:00,36.2,25.6,30.08,NW,306,11.0,11.0,65,0.00,,,0.00,WeatherCatV1.11B39,2013-03-26 15:49:00,
2013-03-26 11:54:00,36.2,24.8,30.08,South,185,4.0,8.0,63,0.00,,,0.00,WeatherCatV1.11B39,2013-03-26 15:54:00,
2013-03-26 11:59:00,36.1,24.7,30.08,WNW,295,13.0,14.0,63,0.00,,,0.00,WeatherCatV1.11B39,2013-03-26 15:59:00,
2013-03-26 12:04:00,36.0,24.3,30.09,WSW,257,8.0,18.0,62,0.00,,,0.00,WeatherCatV1.11B39,2013-03-26 16:04:00,
2013-03-26 12:09:00,36.4,24.6,30.09,WSW,250,3.0,14.0,62,0.00,,,0.00,WeatherCatV1.11B39,2013-03-26 16:09:00,
2013-03-26 12:14:00,37.0,24.8,30.09,West,264,7.0,12.0,61,0.00,,,0.00,WeatherCatV1.11B39,2013-03-26 16:14:00,
2013-03-26 12:19:00,36.9,24.7,30.08,WSW,246,4.0,7.0,61,0.00,,,0.00,WeatherCatV1.11B39,2013-03-26 16:19:00,
2013-03-26 12:24:00,36.7,24.5,30.09,SSW,209,6.0,19.0,61,0.00,,,0.00,WeatherCatV1.11B39,2013-03-26 16:24:00,
2013-03-26 12:29:00,36.6,24.4,30.09,SW,229,11.0,15.0,61,0.00,,,0.00,WeatherCatV1.11B39,2013-03-26 16:29:00,
2013-03-26 12:34:00,36.6,24.8,30.09,West,281,7.0,11.0,62,0.00,,,0.00,WeatherCatV1.11B39,2013-03-26 16:34:00,
2013-03-26 12:39:00,36.8,25.0,30.09,WNW,289,4.0,12.0,62,0.00,,,0.00,WeatherCatV1.11B39,2013-03-26 16:39:00,
2013-03-26 12:44:00,36.7,24.1,30.09,SSW,209,9.0,14.0,60,0.00,,,0.00,WeatherCatV1.11B39,2013-03-26 16:44:00,
2013-03-26 12:49:00,36.8,24.6,30.09,SW,225,11.0,11.0,61,0.00,,,0.00,WeatherCatV1.11B39,2013-03-26 16:49:00,
2013-03-26 12:54:00,37.0,25.6,30.09,West,269,5.0,9.0,63,0.00,,,0.00,WeatherCatV1.11B39,2013-03-26 16:54:00,
2013-03-26 12:59:00,37.0,24.8,30.09,SW,228,4.0,8.0,61,0.00,,,0.00,WeatherCatV1.11B39,2013-03-26 16:59:00,
2013-03-26 13:04:00,37.2,25.8,30.09,SW,235,8.0,13.0,63,0.00,,,0.00,WeatherCatV1.11B39,2013-03-26 17:04:00,
2013-03-26 13:09:00,37.4,25.2,30.09,WSW,243,5.0,19.0,61,0.00,,,0.00,WeatherCatV1.11B39,2013-03-26 17:09:00,
2013-03-26 13:14:00,37.3,25.1,30.09,West,266,8.0,18.0,61,0.00,,,0.00,WeatherCatV1.11B39,2013-03-26 17:14:00,
2013-03-26 13:19:00,37.3,25.1,30.10,WNW,284,16.0,18.0,61,0.00,,,0.00,WeatherCatV1.11B39,2013-03-26 17:19:00,
2013-03-26 13:24:00,36.9,25.1,30.10,SW,234,4.0,15.0,62,0.00,,,0.00,WeatherCatV1.11B39,2013-03-26 17:24:00,
2013-03-26 13:29:00,36.9,25.1,30.10,WSW,248,5.0,12.0,62,0.00,,,0.00,WeatherCatV1.11B39,2013-03-26 17:29:00,
2013-03-26 13:34:00,36.9,24.7,30.10,WNW,292,7.0,14.0,61,0.00,,,0.00,WeatherCatV1.11B39,2013-03-26 17:34:00,
2013-03-26 13:39:00,36.9,24.7,30.10,WNW,286,9.0,16.0,61,0.00,,,0.00,WeatherCatV1.11B39,2013-03-26 17:39:00,
2013-03-26 13:44:00,36.8,24.6,30.10,SW,236,6.0,13.0,61,0.00,,,0.00,WeatherCatV1.11B39,2013-03-26 17:44:00,
2013-03-26 13:49:00,37.2,25.0,30.10,WSW,242,3.0,10.0,61,0.00,,,0.00,WeatherCatV1.11B39,2013-03-26 17:49:00,
2013-03-26 13:54:00,37.7,24.3,30.10,SW,234,7.0,23.0,58,0.00,,,0.00,WeatherCatV1.11B39,2013-03-26 17:54:00,
2013-03-26 13:59:00,37.6,24.6,30.10,West,273,11.0,12.0,59,0.00,,,0.00,WeatherCatV1.11B39,2013-03-26 17:59:00,
2013-03-26 14:04:00,37.5,24.5,30.10,West,267,7.0,18.0,59,0.00,,,0.00,WeatherCatV1.11B39,2013-03-26 18:04:00,
2013-03-26 14:09:00,37.5,24.5,30.10,West,261,10.0,21.0,59,0.00,,,0.00,WeatherCatV1.11B39,2013-03-26 18:09:00,
2013-03-26 14:14:00,37.3,24.3,30.11,WSW,252,17.0,20.0,59,0.00,,,0.00,WeatherCatV1.11B39,2013-03-26 18:14:00,
2013-03-26 14:19:00,37.3,24.7,30.11,WSW,240,5.0,10.0,60,0.00,,,0.00,WeatherCatV1.11B39,2013-03-26 18:19:00,
2013-03-26 14:24:00,37.5,25.3,30.11,West,267,13.0,13.0,61,0.00,,,0.00,WeatherCatV1.11B39,2013-03-26 18:24:00,
2013-03-26 14:29:00,37.8,25.2,30.10,WSW,242,13.0,24.0,60,0.00,,,0.00,WeatherCatV1.11B39,2013-03-26 18:29:00,
2013-03-26 14:34:00,37.7,24.7,30.11,West,261,4.0,19.0,59,0.00,,,0.00,WeatherCatV1.11B39,2013-03-26 18:34:00,
2013-03-26 14:39:00,38.1,24.6,30.11,WNW,287,16.0,16.0,58,0.00,,,0.00,WeatherCatV1.11B39,2013-03-26 18:39:00,
2013-03-26 14:44:00,38.2,24.3,30.11,SW,234,11.0,23.0,57,0.00,,,0.00,WeatherCatV1.11B39,2013-03-26 18:44:00,
2013-03-26 14:49:00,38.1,24.6,30.11,West,278,12.0,12.0,58,0.00,,,0.00,WeatherCatV1.11B39,2013-03-26 18:49:00,
2013-03-26 14:54:00,38.3,24.8,30.10,WNW,282,8.0,21.0,58,0.00,,,0.00,WeatherCatV1.11B39,2013-03-26 18:54:00,
2013-03-26 14:59:00,38.3,25.2,30.10,West,274,9.0,18.0,59,0.00,,,0.00,WeatherCatV1.11B39,2013-03-26 18:59:00,
2013-03-26 15:03:00,38.3,26.0,30.10,SSE,150,7.0,14.0,61,0.00,,,0.00,WeatherCatV1.11B39,2013-03-26 19:03:00,
2013-03-26 15:08:00,38.3,25.6,30.10,West,278,12.0,12.0,60,0.00,,,0.00,WeatherCatV1.11B39,2013-03-26 19:08:00,
2013-03-26 15:13:00,37.9,25.3,30.10,WNW,286,12.0,22.0,60,0.00,,,0.00,WeatherCatV1.11B39,2013-03-26 19:13:00,
2013-03-26 15:18:00,37.7,25.1,30.11,WNW,283,13.0,20.0,60,0.00,,,0.00,WeatherCatV1.11B39,2013-03-26 19:18:00,
2013-03-26 15:23:00,37.7,25.9,30.11,WNW,298,11.0,19.0,62,0.00,,,0.00,WeatherCatV1.11B39,2013-03-26 19:23:00,
2013-03-26 15:28:00,38.3,26.4,30.11,West,278,21.0,21.0,62,0.00,,,0.00,WeatherCatV1.11B39,2013-03-26 19:28:00,
2013-03-26 15:33:00,38.0,25.4,30.10,WNW,290,14.0,23.0,60,0.00,,,0.00,WeatherCatV1.11B39,2013-03-26 19:33:00,
2013-03-26 15:38:00,37.7,25.5,30.11,WNW,291,2.0,16.0,61,0.00,,,0.00,WeatherCatV1.11B39,2013-03-26 19:38:00,
2013-03-26 15:43:00,37.9,26.1,30.11,WNW,301,5.0,13.0,62,0.00,,,0.00,WeatherCatV1.11B39,2013-03-26 19:43:00,
2013-03-26 15:48:00,38.7,25.6,30.10,SSW,199,5.0,18.0,59,0.00,,,0.00,WeatherCatV1.11B39,2013-03-26 19:48:00,
2013-03-26 15:53:00,38.9,24.6,30.10,WNW,291,8.0,21.0,56,0.00,,,0.00,WeatherCatV1.11B39,2013-03-26 19:53:00,
2013-03-26 15:58:00,38.7,25.2,30.10,WNW,293,7.0,12.0,58,0.00,,,0.00,WeatherCatV1.11B39,2013-03-26 19:58:00,
2013-03-26 16:03:00,38.9,25.4,30.10,WNW,290,7.0,10.0,58,0.00,,,0.00,WeatherCatV1.11B39,2013-03-26 20:03:00,
2013-03-26 16:08:00,39.0,25.1,30.10,WNW,296,4.0,14.0,57,0.00,,,0.00,WeatherCatV1.11B39,2013-03-26 20:08:00,
2013-03-26 16:13:00,39.2,24.8,30.11,WSW,247,6.0,13.0,56,0.00,,,0.00,WeatherCatV1.11B39,2013-03-26 20:13:00,
2013-03-26 16:18:00,38.9,24.6,30.11,WNW,284,15.0,17.0,56,0.00,,,0.00,WeatherCatV1.11B39,2013-03-26 20:18:00,
2013-03-26 16:23:00,38.5,24.6,30.11,West,276,13.0,20.0,57,0.00,,,0.00,WeatherCatV1.11B39,2013-03-26 20:23:00,
2013-03-26 16:28:00,38.2,25.2,30.11,WSW,244,5.0,25.0,59,0.00,,,0.00,WeatherCatV1.11B39,2013-03-26 20:28:00,
2013-03-26 16:33:00,38.0,25.4,30.11,West,261,10.0,18.0,60,0.00,,,0.00,WeatherCatV1.11B39,2013-03-26 20:33:00,
2013-03-26 16:38:00,38.0,25.4,30.12,WSW,239,4.0,12.0,60,0.00,,,0.00,WeatherCatV1.11B39,2013-03-26 20:38:00,
2013-03-26 16:43:00,38.8,25.3,30.12,West,262,12.0,20.0,58,0.00,,,0.00,WeatherCatV1.11B39,2013-03-26 20:43:00,
2013-03-26 16:48:00,39.1,25.2,30.11,WSW,237,8.0,24.0,57,0.00,,,0.00,WeatherCatV1.11B39,2013-03-26 20:48:00,
2013-03-26 16:53:00,38.9,25.4,30.12,SSW,193,9.0,14.0,58,0.00,,,0.00,WeatherCatV1.11B39,2013-03-26 20:53:00,
2013-03-26 16:58:00,39.2,25.3,30.11,WSW,246,5.0,15.0,57,0.00,,,0.00,WeatherCatV1.11B39,2013-03-26 20:58:00,
2013-03-26 17:03:00,39.6,25.6,30.11,SW,230,5.0,23.0,57,0.00,,,0.00,WeatherCatV1.11B39,2013-03-26 21:03:00,
2013-03-26 17:08:00,39.0,24.7,30.12,West,270,15.0,22.0,56,0.00,,,0.00,WeatherCatV1.11B39,2013-03-26 21:08:00,
2013-03-26 17:13:00,38.7,24.8,30.11,West,281,11.0,18.0,57,0.00,,,0.00,WeatherCatV1.11B39,2013-03-26 21:13:00,
2013-03-26 17:18:00,38.6,24.7,30.12,WSW,248,8.0,15.0,57,0.00,,,0.00,WeatherCatV1.11B39,2013-03-26 21:18:00,
2013-03-26 17:23:00,38.7,25.2,30.12,WSW,252,10.0,19.0,58,0.00,,,0.00,WeatherCatV1.11B39,2013-03-26 21:23:00,
2013-03-26 17:28:00,38.6,23.8,30.11,West,279,16.0,20.0,55,0.00,,,0.00,WeatherCatV1.11B39,2013-03-26 21:28:00,
2013-03-26 17:33:00,38.6,24.3,30.12,West,262,3.0,10.0,56,0.00,,,0.00,WeatherCatV1.11B39,2013-03-26 21:33:00,
2013-03-26 17:38:00,39.0,25.1,30.12,West,271,8.0,10.0,57,0.00,,,0.00,WeatherCatV1.11B39,2013-03-26 21:38:00,
2013-03-26 17:43:00,39.2,24.4,30.12,SW,222,4.0,8.0,55,0.00,,,0.00,WeatherCatV1.11B39,2013-03-26 21:43:00,
2013-03-26 17:48:00,39.0,23.8,30.12,SSW,200,12.0,18.0,54,0.00,,,0.00,WeatherCatV1.11B39,2013-03-26 21:48:00,
2013-03-26 17:53:00,38.6,23.8,30.12,SSW,205,18.0,20.0,55,0.00,,,0.00,WeatherCatV1.11B39,2013-03-26 21:53:00,
2013-03-26 17:58:00,38.4,23.7,30.13,West,266,5.0,12.0,55,0.00,,,0.00,WeatherCatV1.11B39,2013-03-26 21:58:00,
2013-03-26 18:03:00,38.4,24.1,30.13,WSW,244,7.0,14.0,56,0.00,,,0.00,WeatherCatV1.11B39,2013-03-26 22:03:00,
2013-03-26 18:08:00,38.4,24.1,30.13,WNW,289,11.0,11.0,56,0.00,,,0.00,WeatherCatV1.11B39,2013-03-26 22:08:00,
2013-03-26 18:13:00,38.4,23.7,30.13,SSW,207,5.0,12.0,55,0.00,,,0.00,WeatherCatV1.11B39,2013-03-26 22:13:00,
2013-03-26 18:18:00,38.5,23.3,30.12,SSW,212,6.0,14.0,54,0.00,,,0.00,WeatherCatV1.11B39,2013-03-26 22:18:00,
2013-03-26 18:23:00,38.5,23.3,30.12,West,278,9.0,13.0,54,0.00,,,0.00,WeatherCatV1.11B39,2013-03-26 22:23:00,
2013-03-26 18:28:00,38.4,23.2,30.13,SW,231,4.0,13.0,54,0.00,,,0.00,WeatherCatV1.11B39,2013-03-26 22:28:00,
2013-03-26 18:33:00,38.3,23.6,30.14,SSW,207,11.0,15.0,55,0.00,,,0.00,WeatherCatV1.11B39,2013-03-26 22:33:00,
2013-03-26 18:38:00,38.1,23.8,30.14,SW,234,2.0,7.0,56,0.00,,,0.00,WeatherCatV1.11B39,2013-03-26 22:38:00,
2013-03-26 18:43:00,38.1,23.8,30.14,WNW,290,7.0,10.0,56,0.00,,,0.00,WeatherCatV1.11B39,2013-03-26 22:43:00,
2013-03-26 18:48:00,38.3,24.4,30.14,SW,225,6.0,13.0,57,0.00,,,0.00,WeatherCatV1.11B39,2013-03-26 22:48:00,
2013-03-26 18:53:00,38.4,23.7,30.14,West,273,4.0,9.0,55,0.00,,,0.00,WeatherCatV1.11B39,2013-03-26 22:53:00,
2013-03-26 18:58:00,38.4,24.1,30.14,NE,42,5.0,15.0,56,0.00,,,0.00,WeatherCatV1.11B39,2013-03-26 22:58:00,
2013-03-26 19:03:00,38.1,23.4,30.15,SW,223,10.0,19.0,55,0.00,,,0.00,WeatherCatV1.11B39,2013-03-26 23:03:00,
2013-03-26 19:08:00,37.9,23.6,30.14,SW,236,10.0,17.0,56,0.00,,,0.00,WeatherCatV1.11B39,2013-03-26 23:08:00,
2013-03-26 19:13:00,37.7,23.4,30.14,NW,313,6.0,18.0,56,0.00,,,0.00,WeatherCatV1.11B39,2013-03-26 23:13:00,
2013-03-26 19:18:00,37.6,23.8,30.14,SW,233,11.0,15.0,57,0.00,,,0.00,WeatherCatV1.11B39,2013-03-26 23:18:00,
2013-03-26 19:23:00,37.5,24.1,30.14,SW,215,7.0,16.0,58,0.00,,,0.00,WeatherCatV1.11B39,2013-03-26 23:23:00,
2013-03-26 19:28:00,37.4,24.0,30.15,West,262,4.0,13.0,58,0.00,,,0.00,WeatherCatV1.11B39,2013-03-26 23:28:00,
2013-03-26 19:33:00,37.3,24.7,30.15,West,266,5.0,12.0,60,0.00,,,0.00,WeatherCatV1.11B39,2013-03-26 23:33:00,
2013-03-26 19:38:00,37.3,24.7,30.15,SW,224,6.0,14.0,60,0.00,,,0.00,WeatherCatV1.11B39,2013-03-26 23:38:00,
2013-03-26 19:43:00,37.1,24.5,30.16,SW,228,6.0,11.0,60,0.00,,,0.00,WeatherCatV1.11B39,2013-03-26 23:43:00,
2013-03-26 19:48:00,37.1,24.9,30.16,West,272,8.0,11.0,61,0.00,,,0.00,WeatherCatV1.11B39,2013-03-26 23:48:00,
2013-03-26 19:53:00,37.0,24.8,30.16,West,265,3.0,16.0,61,0.00,,,0.00,WeatherCatV1.11B39,2013-03-26 23:53:00,
2013-03-26 19:58:00,36.9,24.3,30.16,West,266,13.0,18.0,60,0.00,,,0.00,WeatherCatV1.11B39,2013-03-26 23:58:00,
2013-03-26 20:03:00,36.8,24.6,30.16,WSW,248,6.0,8.0,61,0.00,,,0.00,WeatherCatV1.11B39,2013-03-27 00:03:00,
2013-03-26 20:07:00,36.8,24.6,30.16,WSW,250,15.0,15.0,61,0.00,,,0.00,WeatherCatV1.11B39,2013-03-27 00:07:00,
2013-03-26 20:12:00,36.7,24.5,30.16,WSW,251,11.0,15.0,61,0.00,,,0.00,WeatherCatV1.11B39,2013-03-27 00:12:00,
2013-03-26 20:17:00,36.6,24.8,30.17,SW,220,3.0,16.0,62,0.00,,,0.00,WeatherCatV1.11B39,2013-03-27 00:17:00,
2013-03-26 20:22:00,36.5,25.1,30.17,SW,223,3.0,19.0,63,0.00,,,0.00,WeatherCatV1.11B39,2013-03-27 00:22:00,
2013-03-26 20:27:00,36.4,25.0,30.17,West,265,5.0,18.0,63,0.00,,,0.00,WeatherCatV1.11B39,2013-03-27 00:27:00,
2013-03-26 20:32:00,36.4,25.4,30.17,WSW,249,3.0,8.0,64,0.00,,,0.00,WeatherCatV1.11B39,2013-03-27 00:32:00,
2013-03-26 20:37:00,36.3,25.3,30.17,WSW,255,11.0,13.0,64,0.00,,,0.00,WeatherCatV1.11B39,2013-03-27 00:37:00,
2013-03-26 20:42:00,36.2,25.2,30.17,WSW,248,8.0,8.0,64,0.00,,,0.00,WeatherCatV1.11B39,2013-03-27 00:42:00,
2013-03-26 20:47:00,36.0,25.0,30.17,West,261,6.0,6.0,64,0.00,,,0.00,WeatherCatV1.11B39,2013-03-27 00:47:00,
2013-03-26 20:52:00,35.9,24.9,30.18,West,270,7.0,8.0,64,0.00,,,0.00,WeatherCatV1.11B39,2013-03-27 00:52:00,
2013-03-26 20:57:00,35.8,24.8,30.18,West,281,6.0,8.0,64,0.00,,,0.00,WeatherCatV1.11B39,2013-03-27 00:57:00,
2013-03-26 21:02:00,35.7,25.1,30.18,SSW,196,5.0,6.0,65,0.00,,,0.00,WeatherCatV1.11B39,2013-03-27 01:02:00,
2013-03-26 21:07:00,35.6,25.4,30.18,West,266,6.0,11.0,66,0.00,,,0.00,WeatherCatV1.11B39,2013-03-27 01:07:00,
2013-03-26 21:12:00,35.6,25.7,30.19,SW,215,7.0,11.0,67,0.00,,,0.00,WeatherCatV1.11B39,2013-03-27 01:12:00,
2013-03-26 21:17:00,35.5,25.6,30.19,WSW,252,7.0,7.0,67,0.00,,,0.00,WeatherCatV1.11B39,2013-03-27 01:17:00,
2013-03-26 21:22:00,35.6,25.4,30.19,SW,230,8.0,8.0,66,0.00,,,0.00,WeatherCatV1.11B39,2013-03-27 01:22:00,
2013-03-26 21:27:00,35.6,25.7,30.19,SSW,213,4.0,7.0,67,0.00,,,0.00,WeatherCatV1.11B39,2013-03-27 01:27:00,
2013-03-26 21:32:00,35.6,25.7,30.19,West,262,5.0,6.0,67,0.00,,,0.00,WeatherCatV1.11B39,2013-03-27 01:32:00,
2013-03-26 21:37:00,35.6,25.7,30.19,SSE,165,1.0,14.0,67,0.00,,,0.00,WeatherCatV1.11B39,2013-03-27 01:37:00,
2013-03-26 21:42:00,35.6,25.7,30.19,West,265,4.0,8.0,67,0.00,,,0.00,WeatherCatV1.11B39,2013-03-27 01:42:00,
2013-03-26 21:47:00,35.6,25.7,30.20,WSW,246,2.0,4.0,67,0.00,,,0.00,WeatherCatV1.11B39,2013-03-27 01:47:00,
2013-03-26 21:52:00,35.6,26.1,30.20,WSW,247,4.0,12.0,68,0.00,,,0.00,WeatherCatV1.11B39,2013-03-27 01:52:00,
2013-03-26 21:57:00,35.6,25.7,30.20,SW,229,8.0,11.0,67,0.00,,,0.00,WeatherCatV1.11B39,2013-03-27 01:57:00,
2013-03-26 22:02:00,35.6,26.1,30.20,WSW,254,4.0,12.0,68,0.00,,,0.00,WeatherCatV1.11B39,2013-03-27 02:02:00,
2013-03-26 22:07:00,35.5,25.6,30.20,West,280,9.0,13.0,67,0.00,,,0.00,WeatherCatV1.11B39,2013-03-27 02:07:00,
2013-03-26 22:12:00,35.4,25.5,30.20,SW,223,9.0,9.0,67,0.00,,,0.00,WeatherCatV1.11B39,2013-03-27 02:12:00,
2013-03-26 22:17:00,35.4,25.5,30.21,West,270,8.0,8.0,67,0.00,,,0.00,WeatherCatV1.11B39,2013-03-27 02:17:00,
2013-03-26 22:22:00,35.3,25.5,30.21,SW,227,3.0,6.0,67,0.00,,,0.00,WeatherCatV1.11B39,2013-03-27 02:22:00,
2013-03-26 22:27:00,35.2,25.4,30.20,West,263,3.0,12.0,67,0.00,,,0.00,WeatherCatV1.11B39,2013-03-27 02:27:00,
2013-03-26 22:32:00,35.2,25.4,30.20,West,277,6.0,6.0,67,0.00,,,0.00,WeatherCatV1.11B39,2013-03-27 02:32:00,
2013-03-26 22:37:00,35.1,25.3,30.20,West,268,3.0,5.0,67,0.00,,,0.00,WeatherCatV1.11B39,2013-03-27 02:37:00,
2013-03-26 22:42:00,35.1,25.3,30.20,WNW,288,7.0,8.0,67,0.00,,,0.00,WeatherCatV1.11B39,2013-03-27 02:42:00,
2013-03-26 22:47:00,35.0,25.2,30.20,SW,235,5.0,8.0,67,0.00,,,0.00,WeatherCatV1.11B39,2013-03-27 02:47:00,
2013-03-26 22:52:00,35.0,25.5,30.20,SW,217,4.0,10.0,68,0.00,,,0.00,WeatherCatV1.11B39,2013-03-27 02:52:00,
2013-03-26 22:57:00,35.0,25.5,30.20,SW,230,6.0,6.0,68,0.00,,,0.00,WeatherCatV1.11B39,2013-03-27 02:57:00,
2013-03-26 23:02:00,35.0,25.5,30.21,SW,216,6.0,9.0,68,0.00,,,0.00,WeatherCatV1.11B39,2013-03-27 03:02:00,
2013-03-26 23:07:00,34.9,25.4,30.21,SW,230,4.0,7.0,68,0.00,,,0.00,WeatherCatV1.11B39,2013-03-27 03:07:00,
2013-03-26 23:12:00,34.9,25.8,30.21,West,263,5.0,8.0,69,0.00,,,0.00,WeatherCatV1.11B39,2013-03-27 03:12:00,
2013-03-26 23:17:00,34.9,25.8,30.21,WSW,258,4.0,4.0,69,0.00,,,0.00,WeatherCatV1.11B39,2013-03-27 03:17:00,
2013-03-26 23:22:00,34.9,25.4,30.21,SW,226,3.0,6.0,68,0.00,,,0.00,WeatherCatV1.11B39,2013-03-27 03:22:00,
2013-03-26 23:27:00,34.9,25.8,30.21,WNW,284,2.0,5.0,69,0.00,,,0.00,WeatherCatV1.11B39,2013-03-27 03:27:00,
2013-03-26 23:32:00,34.9,25.8,30.20,South,178,8.0,8.0,69,0.00,,,0.00,WeatherCatV1.11B39,2013-03-27 03:32:00,
2013-03-26 23:37:00,34.8,25.7,30.21,West,279,5.0,6.0,69,0.00,,,0.00,WeatherCatV1.11B39,2013-03-27 03:37:00,
2013-03-26 23:42:00,34.8,25.7,30.20,SW,225,5.0,9.0,69,0.00,,,0.00,WeatherCatV1.11B39,2013-03-27 03:42:00,
2013-03-26 23:47:00,34.8,25.7,30.20,WNW,283,2.0,4.0,69,0.00,,,0.00,WeatherCatV1.11B39,2013-03-27 03:47:00,
2013-03-26 23:52:00,34.8,26.0,30.21,West,277,5.0,5.0,70,0.00,,,0.00,WeatherCatV1.11B39,2013-03-27 03:52:00,
2013-03-26 23:57:00,34.7,25.6,30.21,SSW,208,0.0,6.0,69,0.00,,,0.00,WeatherCatV1.11B39,2013-03-27 03:57:00,